Regional Weather Roundup
Issued by NWS

Home | Current Version | Previous Version | Text Only | Print | Product List | Glossary Off
Versions: 1 2 3 4 5 6 7 8 9 10 11 12 13 14 15 16 17 18 19 20 21 22 23 24 25 26 27 28 29 30 31 32 33 34 35 36 37 38 39 40 41 42 43 44 45 46 47 48 49 50

000
ASUS43 KMKX 241721
RWRWI

WISCONSIN REGIONAL WEATHER ROUNDUP
NATIONAL WEATHER SERVICE MILWAUKEE/SULLIVAN WI
1200 PM CDT SUN SEP 24 2017

NOTE: "FAIR" INDICATES FEW OR NO CLOUDS BELOW 12,000 FEET WITH NO
SIGNIFICANT WEATHER AND/OR OBSTRUCTIONS TO VISIBILITY.

WIZ001-002-006>008-014>016-023>028-241800-
NORTHWEST WISCONSIN

CITY           SKY/WX    TMP DP  RH WIND       PRES   REMARKS
SUPERIOR ARPT  CLOUDY    66  64  94 E6        29.93F
ASHLAND        MOSUNNY   87  66  49 S16G23    29.95S HX  89
HAYWARD        MOSUNNY   82  65  56 SW10G22   29.98S HX  84
SIREN          CLOUDY    80  65  61 S9        29.95F HX  82
CUMBERLAND     SUNNY     81  64  57 S12       29.98S HX  82
RICE LAKE      PTSUNNY   83  63  51 S12G17    29.99F HX  84
CHETEK         MOSUNNY   83  65  54 S12G21    29.99S HX  84
LADYSMITH      SUNNY     84  63  48 S13       30.03S HX  85
EAU CLAIRE     SUNNY     85  62  46 S15       29.97F HX  85
MENOMONIE      SUNNY     84  63  48 S12G20    29.98S HX  85
NEW RICHMOND   MOSUNNY   84  64  49 S13       29.96F HX  85
OSCEOLA        MOSUNNY   83  66  55 S10       29.97F HX  85
$$

WIZ003>005-009-010-017-018-241800-
NORTH CENTRAL WISCONSIN

CITY           SKY/WX    TMP DP  RH WIND       PRES   REMARKS
MANITOWISH WTR NOT AVBL
ARBOR VITAE    SUNNY     83  65  54 S10       30.04F HX  85
WOODRUFF       SUNNY     83  65  54 S10       30.04F HX  85
RHINELANDER    SUNNY     84  64  50 S10       30.06F HX  85
EAGLE RIVER    SUNNY     84  61  45 SW8G16    30.05F HX  84
LAND O LAKES   SUNNY     83  62  47 S10G16    30.07F HX  84
PHILLIPS       MOSUNNY   82  63  52 S16G23    30.03R HX  84
TOMAHAWK       SUNNY     84  63  49 S6        30.05F HX  85
MEDFORD        SUNNY     83  62  48 S13       30.05S HX  83
MERRILL        SUNNY     85  66  53 S9        30.05F HX  87
$$

WIZ029-030-035-036-043>047-241800-
CENTRAL WISCONSIN

CITY           SKY/WX    TMP DP  RH WIND       PRES   REMARKS
WAUSAU         SUNNY     84  64  50 SW8       30.04S HX  85
MOSINEE        SUNNY     84  66  54 S7        30.06F HX  86
MARSHFIELD     SUNNY     85  62  46 S10       30.04F HX  85
STEVENS POINT  SUNNY     85  64  50 S8        30.05F HX  86
WAUPACA        SUNNY     88  65  47 S8        30.05F HX  90
WAUTOMA        SUNNY     86  66  51 S9        30.05F HX  88
WISC RAPIDS    SUNNY     87  64  46 SW8       30.05F HX  88
CAMP DOUGLAS   SUNNY     88  64  45 S12G17    30.03F HX  89
$$

WIZ011>013-019>022-031-037>040-048>050-241800-
NORTHEAST WISCONSIN

CITY           SKY/WX    TMP DP  RH WIND       PRES   REMARKS
ANTIGO         SUNNY     83  66  55 S10       30.08S HX  85
SHAWANO        SUNNY     88  66  48 SW8       30.05F HX  90
OCONTO         SUNNY     83  68  60 SE7       30.05F HX  86
STURGEON BAY   SUNNY     87  69  54 S12       30.07F HX  91
GREEN BAY      SUNNY     87  69  54 VRB7      30.05F HX  91
MANITOWOC      SUNNY     79  70  74 SE7       30.08S HX  82
APPLETON       SUNNY     84  63  48 S9        30.06S HX  85
CLINTONVILLE   SUNNY     88  63  42 S8        30.05F HX  88
OSHKOSH        SUNNY     86  65  49 S15       30.06F HX  88
$$

WIZ032>034-041-042-053>061-241800-
SOUTHWEST WISCONSIN

CITY           SKY/WX    TMP DP  RH WIND       PRES   REMARKS
LA CROSSE      SUNNY     87  64  46 S13       29.99F HX  88
SPARTA         SUNNY     86  62  45 S8        30.03S HX  86
VIROQUA        SUNNY     85  63  47 S9        30.05S HX  86
BOSCOBEL       SUNNY     90  61  37 S8G16     30.02F HX  90
PRAIRIE DU CHI SUNNY     86  60  40 SE7       30.01F HX  86
PLATTEVILLE    SUNNY     86  63  46 S13       30.06F HX  87
$$

WIZ056-057-062-063-064-067-068-241800-
SOUTH CENTRAL WISCONSIN

CITY           SKY/WX    TMP DP  RH WIND       PRES   REMARKS
REEDSBURG      SUNNY     85  64  47 S8        30.05S HX  86
BARABOO/DELLS  SUNNY     85  60  42 S13       30.06S HX  85
LONE ROCK      SUNNY     89  64  43 S9G17     30.03F HX  90
MINERAL POINT  SUNNY     88  61  40 SE10      30.07F HX  88
MADISON        SUNNY     86  63  45 S12       30.05F HX  87
MIDDLETON      SUNNY     87  61  42 S10G17    30.06F HX  87
WATERTOWN      SUNNY     87  64  46 S8        30.07F HX  88
MONROE         SUNNY     86  59  39 S14G20    30.07F HX  85
JANESVILLE     SUNNY     90  59  35 S10       30.07F HX  89
$$

WIZ051-052-058>065-066-070>072-241800-
SOUTHEAST WISCONSIN

CITY           SKY/WX    TMP DP  RH WIND       PRES   REMARKS
MILWAUKEE      MOSUNNY   90  62  39 S12       30.07F HX  90
WAUKESHA       SUNNY     84  61  45 S8        30.10F HX  84
MILWAUKEE/TIMM SUNNY     88  57  35 S12       30.08F HX  86
RACINE         SUNNY     86  69  56 SE8       30.09F HX  90
BURLINGTON     SUNNY     89  63  42 SW8G21    30.08F HX  90
KENOSHA        SUNNY     89  62  40 S13       30.08F HX  89
FOND DU LAC    SUNNY     86  63  45 S9G20     30.07F HX  87
SHEBOYGAN      SUNNY     88  69  53 S12       30.07F HX  92
WEST BEND        N/A     86  61  42 S9        30.08F HX  86
JUNEAU         SUNNY     84  64  50 SE13G18   30.09S HX  85
$$

LSZ147-162-241800-
LAKE SUPERIOR

STATION/POSITION TIME  TEMP    WIND        PRES    WAVE
                       AIR SEA DIR/SP/G            HT/PER
                 (UTC) (F)     (DEG/KT/KT) (MB)    (FT/S)
W MID LAKE BUOY  1650   62 56  110/  6/  8 1013.9F   1
DEVILS ISLAND    1700   67      80/  5/  6 1013.4F
SAXON HARBOR     1630   85     200/  8/ 12 1013.9F
$$

LMZ867-665-643>646-241800-
LAKE MICHIGAN

STATION/POSITION TIME  TEMP    WIND        PRES    WAVE
                       AIR SEA DIR/SP/G            HT/PER
                 (UTC) (F)     (DEG/KT/KT) (MB)    (FT/S)
S GREEN BAY BUOY 1700   77 70  210/  2/  2 1017.6
N MID LAKE BUOY  1650   69 67  180/  8/ 10 1019.0F   1
NORTHPORT PIER   1640   74     150/  8/ 10 1017.9S
KEWAUNEE LAKESHO 1654   67     180/  8/  9 1017.7F
SHEBOYGAN LAKESH 1700   71     160/ 13/ 14 1017.9F
PORT WASHINGTON  1630   77     140/  1/  3 1019.3F
ATWATER BUOY     1609   69 65  170/  4/  4 1018.9F
MILWAUKEE LAKESH 1700   75      40/  1/  2   N/A
S MID LAKE BUOY  1650   72 71  180/  6/  8 1019.1F   1
KENOSHA   LAKESH 1700   75     170/  9/ 10 1018.3
$$

TC  - TEMPERATURE IN CELSIUS
VSB - VISIBILITY IN STATUTE MILES
WCI - WIND CHILL INDEX
HX  - HEAT INDEX




USA.gov is the U.S. government's official web portal to all federal, state and local government web resources and services.